Weather in poselok Kirova

Russia / Volgograd Oblast     48°28′20″N   44°31′38″E
temp.,
°C
wind,
m/s
gust,
m/s
humid.,
%
clouds,
%
prec.,
mm/h
press.,
hPa
HPBL,
m
5 august, thu
thu500:00+24nne485717 0.0 1015225
03:00+23nne485949 0.0 1015222
06:00+22ne47605 0.0 1016263
09:00+26ne454397 0.0 1016745
12:00+28n4436100 0.0 10161175
15:00+29ne44320 0.0 10151538
18:00+29ene4428100 0.0 1014934
21:00+26ene3433100 0.0 101477
6 august, fri
fri600:00+23e343773 0.0 101556
03:00+22e33395 0.0 101450
06:00+22ene35415 0.0 1015136
09:00+28e46305 0.0 1014900
12:00+32ene45244 0.0 10131685
15:00+33ese55205 0.0 10111940
18:00+32e66205 0.0 10111794
21:00+27e510284 0.0 1011181
7 august, sat
sat700:00+24e411334 0.0 1012185
03:00+23e412355 0.0 1012259
06:00+23e41134100 0.0 1012281
09:00+30ese6922100 0.0 1012764
12:00+34ese6719100 0.0 10101533
15:00+35ese5618100 0.0 10091906
18:00+35e5719100 0.0 10091119
21:00+29ene5122520 0.0 1009204
8 august, sun
sun800:00+26e472813 0.0 1010103
03:00+25e3531100 0.0 101095
06:00+25e4934100 0.0 1011200
09:00+31ese6923100 0.0 1010518
12:00+37se691799 0.0 10081919
15:00+35ne582184 0.0 1008953
18:00+34nne6102466 0.0 1007413
21:00+29ne44322 0.0 100646
9 august, mon
mon900:00+25ene344739 0.8 100640
03:00+26wsw51040100 0.8 1007219
06:00+26wsw61137100 0.0 1007269
09:00+30sw793279 0.0 1008709
12:00+33sw8102999 0.0 10081556
15:00+34sw8102579 0.0 10071821
18:00+34wsw78265 0.0 10071786
21:00+29wsw58346 0.0 1008159